Simultaneous Nadir Overpasses (SNOs) Predictions

Prediction of SNOs between LANDSAT-8 and METOP-A Satellite Orbit:

Table of predicted SNOs for the next 14.0 days since TLE Epoch: 3/2/2019
Index Date (LANDSAT-8) Time (LANDSAT-8) Lat,Lon (LANDSAT-8) SZA (LANDSAT-8 ) Date (METOP-A) Time (METOP-A) Lat,Lon (METOP-A) SZA (METOP-A ) Distance(km) Time Diff (sec)
1 03/04/2019 15:39:05 -81.44, 170.46 90.01 03/04/2019 15:38:21 -81.45, 170.47 90.03 0.43 44
2 03/04/2019 16:28:31 81.45, -21.82 89.99 03/04/2019 16:29:01 81.45, -21.79 90.01 0.44 30
3 03/07/2019 11:13:18 -81.45,-122.96 91.06 03/07/2019 11:12:34 -81.45,-123.07 91.09 1.83 44
4 03/07/2019 12:02:44 81.45, 44.75 88.94 03/07/2019 12:03:14 81.45, 44.64 88.94 1.79 30
5 03/10/2019 06:47:33 -81.44, -56.78 92.17 03/10/2019 06:46:48 -81.45, -56.61 92.17 3.02 45
6 03/10/2019 07:36:59 81.44, 110.90 87.83 03/10/2019 07:37:28 81.45, 111.07 87.86 2.89 29
7 03/13/2019 02:21:47 -81.44, 9.76 93.24 03/13/2019 02:21:02 -81.45, 9.83 93.25 1.25 45
8 03/13/2019 03:11:13 81.44, 177.43 86.76 03/13/2019 03:11:42 81.45, 177.47 86.78 0.94 29
9 03/15/2019 21:56:00 -81.45, 76.29 94.31 03/15/2019 21:55:15 -81.45, 76.26 94.33 0.44 45




NCC Satellite Simultaneous Nadir Overpasses (SNOs) Prediction Service
